Location: Treviso
(45.6669°N, 12.2430°E)
Time: 12:55:33
(UTC+01:00)

ISS - Pass Details

Date: 19 February 2024
Orbit: 415 x 417 km, 51.6° (Epoch: 21 February)

Event Time Altitude Azimuth Distance (km) Brightness Sun altitude
Exits shadow 04:32:38 14° 123° (ESE) 1,281 -0.8 -27.7°
Drops below altitude 10° 04:33:58 10° 100° (E) 1,494 -0.1 -27.5°
Sets 04:36:47 0° 74° (ENE) 2,362 1.4 -27.0°
